Meteo pe oră la Dachne

Astăzi, 14 Aprilie, Miercuri

Timp Temperatura Precipitaţii Vânt Presiune Umiditate
00:00 +10°C° 0 mm 1 m/s 755 mmHg 81%
01:00 +10°C° 0 mm 1 m/s 755 mmHg 82%
02:00 +9°C° 0 mm 1 m/s 755 mmHg 83%
03:00 +9°C° 0 mm 1 m/s 755 mmHg 83%
04:00 +10°C° 0 mm 1 m/s 754 mmHg 83%
05:00 +10°C° 0 mm 1 m/s 754 mmHg 83%
06:00 +10°C° 0.3 mm 1 m/s 754 mmHg 84%
07:00 +10°C° 0.3 mm 1 m/s 754 mmHg 84%
08:00 +10°C° 0 mm 1 m/s 754 mmHg 86%
09:00 +12°C° 0.1 mm 1 m/s 753 mmHg 79%
10:00 +13°C° 0.1 mm 1 m/s 753 mmHg 72%
11:00 +15°C° 0.1 mm 1 m/s 753 mmHg 65%
12:00 +15°C° 0.1 mm 1 m/s 752 mmHg 62%
13:00 +16°C° 0.1 mm 1 m/s 752 mmHg 59%
14:00 +16°C° 0.1 mm 2 m/s 752 mmHg 57%
15:00 +16°C° 0.3 mm 2 m/s 751 mmHg 60%
16:00 +15°C° 0.3 mm 2 m/s 751 mmHg 64%
17:00 +15°C° 0.3 mm 2 m/s 751 mmHg 67%
18:00 +14°C° 0.2 mm 2 m/s 751 mmHg 72%
19:00 +13°C° 0.2 mm 2 m/s 751 mmHg 77%
20:00 +12°C° 0.2 mm 2 m/s 751 mmHg 83%
21:00 +10°C° 0 mm 2 m/s 751 mmHg 83%
22:00 +10°C° 0 mm 2 m/s 751 mmHg 83%
23:00 +9°C° 0 mm 2 m/s 751 mmHg 84%

Mâine, 15 Aprilie, Joi

Timp Temperatura Precipitaţii Vânt Presiune Umiditate
00:00 +9°C° 0 mm 2 m/s 751 mmHg 85%
01:00 +8°C° 0 mm 2 m/s 751 mmHg 85%
02:00 +8°C° 0 mm 2 m/s 751 mmHg 86%
03:00 +8°C° 0 mm 2 m/s 751 mmHg 86%
04:00 +7°C° 0 mm 2 m/s 751 mmHg 85%
05:00 +7°C° 0 mm 2 m/s 751 mmHg 85%
06:00 +8°C° 0 mm 2 m/s 751 mmHg 81%
07:00 +9°C° 0 mm 3 m/s 751 mmHg 77%
08:00 +10°C° 0 mm 4 m/s 751 mmHg 72%
09:00 +11°C° 0 mm 4 m/s 751 mmHg 68%
10:00 +13°C° 0 mm 4 m/s 750 mmHg 64%
11:00 +14°C° 0 mm 4 m/s 750 mmHg 60%
12:00 +14°C° 0.1 mm 4 m/s 750 mmHg 59%
13:00 +14°C° 0.1 mm 5 m/s 750 mmHg 58%
14:00 +15°C° 0.1 mm 5 m/s 749 mmHg 57%
15:00 +14°C° 0.6 mm 4 m/s 749 mmHg 61%
16:00 +14°C° 0.6 mm 4 m/s 749 mmHg 65%
17:00 +13°C° 0.6 mm 4 m/s 749 mmHg 69%
18:00 +12°C° 0.4 mm 4 m/s 749 mmHg 72%
19:00 +11°C° 0.4 mm 3 m/s 750 mmHg 75%
20:00 +10°C° 0.4 mm 2 m/s 750 mmHg 78%
21:00 +10°C° 0 mm 3 m/s 750 mmHg 81%
22:00 +9°C° 0 mm 3 m/s 750 mmHg 83%
23:00 +8°C° 0 mm 3 m/s 750 mmHg 85%

Poimâine, 16 Aprilie, Vineri

Timp Temperatura Precipitaţii Vânt Presiune Umiditate
00:00 +8°C° 0 mm 3 m/s 750 mmHg 87%
01:00 +7°C° 0 mm 3 m/s 750 mmHg 88%
02:00 +7°C° 0 mm 3 m/s 750 mmHg 90%
03:00 +5°C° 0 mm 3 m/s 750 mmHg 90%
04:00 +5°C° 0 mm 3 m/s 751 mmHg 91%
05:00 +4°C° 0 mm 3 m/s 751 mmHg 92%
06:00 +6°C° 0 mm 4 m/s 751 mmHg 85%
07:00 +7°C° 0 mm 4 m/s 751 mmHg 78%
08:00 +8°C° 0 mm 5 m/s 751 mmHg 71%
09:00 +8°C° 0 mm 5 m/s 751 mmHg 70%
10:00 +9°C° 0 mm 5 m/s 752 mmHg 70%
11:00 +9°C° 0 mm 5 m/s 752 mmHg 69%
12:00 +10°C° 0 mm 4 m/s 752 mmHg 69%
13:00 +10°C° 0 mm 4 m/s 752 mmHg 69%
14:00 +10°C° 0 mm 4 m/s 752 mmHg 69%
15:00 +10°C° 0 mm 3 m/s 752 mmHg 70%
16:00 +10°C° 0 mm 3 m/s 752 mmHg 72%
17:00 +10°C° 0 mm 2 m/s 752 mmHg 73%
18:00 +9°C° 0.1 mm 2 m/s 752 mmHg 78%
19:00 +9°C° 0.1 mm 2 m/s 753 mmHg 82%
20:00 +8°C° 0.1 mm 2 m/s 753 mmHg 86%
21:00 +8°C° 0.1 mm 2 m/s 753 mmHg 87%
22:00 +7°C° 0.1 mm 2 m/s 753 mmHg 88%
23:00 +7°C° 0.1 mm 2 m/s 753 mmHg 89%

17 Aprilie, Sâmbătă

Timp Temperatura Precipitaţii Vânt Presiune Umiditate
00:00 +7°C° 0 mm 2 m/s 753 mmHg 89%
01:00 +8°C° 0 mm 1 m/s 753 mmHg 89%
02:00 +6°C° 0 mm 0 m/s 753 mmHg 90%
03:00 +7°C° 0 mm 1 m/s 753 mmHg 90%
04:00 +7°C° 0 mm 1 m/s 753 mmHg 90%
05:00 +6°C° 0 mm 2 m/s 753 mmHg 90%
06:00 +7°C° 0 mm 2 m/s 754 mmHg 86%
07:00 +8°C° 0 mm 2 m/s 754 mmHg 82%
08:00 +8°C° 0 mm 3 m/s 754 mmHg 78%
09:00 +10°C° 0 mm 3 m/s 754 mmHg 70%
10:00 +11°C° 0 mm 3 m/s 754 mmHg 63%
11:00 +12°C° 0 mm 3 m/s 753 mmHg 56%
12:00 +12°C° 0.2 mm 3 m/s 754 mmHg 55%
13:00 +12°C° 0.2 mm 3 m/s 754 mmHg 55%
14:00 +12°C° 0.2 mm 3 m/s 754 mmHg 54%
15:00 +12°C° 0.1 mm 3 m/s 754 mmHg 56%
16:00 +12°C° 0.1 mm 3 m/s 754 mmHg 57%
17:00 +12°C° 0.1 mm 3 m/s 754 mmHg 59%
18:00 +11°C° 0.1 mm 3 m/s 754 mmHg 64%
19:00 +10°C° 0.1 mm 2 m/s 754 mmHg 69%
20:00 +9°C° 0.1 mm 2 m/s 754 mmHg 74%
21:00 +9°C° 0.1 mm 2 m/s 754 mmHg 75%
22:00 +9°C° 0.1 mm 2 m/s 755 mmHg 76%
23:00 +8°C° 0.1 mm 2 m/s 755 mmHg 77%

18 Aprilie, Duminică

Timp Temperatura Precipitaţii Vânt Presiune Umiditate
00:00 +8°C° 0 mm 2 m/s 755 mmHg 78%
01:00 +9°C° 0 mm 1 m/s 755 mmHg 79%
02:00 +9°C° 0 mm 1 m/s 755 mmHg 80%
03:00 +8°C° 0 mm 1 m/s 755 mmHg 82%
04:00 +8°C° 0 mm 1 m/s 755 mmHg 84%
05:00 +7°C° 0 mm 1 m/s 755 mmHg 85%
06:00 +9°C° 0 mm 1 m/s 755 mmHg 79%
07:00 +10°C° 0 mm 1 m/s 755 mmHg 73%
08:00 +11°C° 0 mm 1 m/s 755 mmHg 66%
09:00 +12°C° 0.1 mm 2 m/s 755 mmHg 60%
10:00 +13°C° 0.1 mm 2 m/s 755 mmHg 54%
11:00 +13°C° 0.1 mm 3 m/s 755 mmHg 47%
12:00 +14°C° 0.1 mm 2 m/s 755 mmHg 47%
13:00 +14°C° 0.1 mm 2 m/s 755 mmHg 47%
14:00 +14°C° 0.1 mm 2 m/s 755 mmHg 46%
15:00 +14°C° 0.2 mm 2 m/s 755 mmHg 49%
16:00 +14°C° 0.2 mm 2 m/s 755 mmHg 52%
17:00 +14°C° 0.2 mm 2 m/s 755 mmHg 55%
18:00 +13°C° 0.1 mm 2 m/s 755 mmHg 61%
19:00 +12°C° 0.1 mm 2 m/s 755 mmHg 66%
20:00 +10°C° 0.1 mm 2 m/s 755 mmHg 72%
21:00 +9°C° 0 mm 2 m/s 755 mmHg 76%
22:00 +9°C° 0 mm 2 m/s 755 mmHg 79%
23:00 +8°C° 0 mm 2 m/s 755 mmHg 82%

19 Aprilie, Luni

Timp Temperatura Precipitaţii Vânt Presiune Umiditate
00:00 +8°C° 0 mm 2 m/s 755 mmHg 86%
01:00 +8°C° 0 mm 3 m/s 756 mmHg 90%
02:00 +7°C° 0 mm 3 m/s 756 mmHg 93%
03:00 +7°C° 0 mm 3 m/s 756 mmHg 93%
04:00 +7°C° 0 mm 3 m/s 756 mmHg 94%
05:00 +7°C° 0 mm 3 m/s 756 mmHg 94%
06:00 +7°C° 0 mm 3 m/s 756 mmHg 89%
07:00 +7°C° 0 mm 4 m/s 756 mmHg 84%
08:00 +8°C° 0 mm 4 m/s 756 mmHg 79%
09:00 +10°C° 0 mm 4 m/s 756 mmHg 73%
10:00 +11°C° 0 mm 4 m/s 757 mmHg 68%
11:00 +13°C° 0 mm 4 m/s 757 mmHg 63%
12:00 +13°C° 0 mm 4 m/s 756 mmHg 61%
13:00 +13°C° 0 mm 4 m/s 756 mmHg 59%
14:00 +14°C° 0 mm 5 m/s 756 mmHg 57%
15:00 +13°C° 0 mm 5 m/s 756 mmHg 61%
16:00 +11°C° 0 mm 6 m/s 756 mmHg 65%
17:00 +11°C° 0 mm 7 m/s 757 mmHg 69%
18:00 +10°C° 0 mm 7 m/s 757 mmHg 70%
19:00 +9°C° 0 mm 7 m/s 757 mmHg 71%
20:00 +6°C° 0 mm 7 m/s 757 mmHg 72%
21:00 +7°C° 0 mm 6 m/s 757 mmHg 75%
22:00 +5°C° 0 mm 6 m/s 756 mmHg 78%
23:00 +4°C° 0 mm 6 m/s 756 mmHg 81%
Arată mai mult

Formular de consimțământ

Meteoprog și furnizorii noștri de servicii pot stoca și accesa date personale, precum cookies, identificatori de dispozitiv sau alte tehnologii similare pe dispozitivul dumneavoastră și procesa astfel de date pentru a personaliza conținutul și reclamele, dar și pentru a oferi caracteristici de social media și pentru a analiza traficul.

  • Stocarea și/sau accesarea informațiilor pe dispozitivul dumneavoastră

    Cookies, identificatori de dispozitiv sau alte informații pot fi stocate sau accesate pe dispozitiv în scopurile indicate mai sus.

  • Reclame și conținut personalizat, evaluarea reclamelor și a conținutului, informații despre audiențe și dezvoltarea produselor

    Reclamele și conținutul pot fi personalizate pe baza unui profil. Pot fi adăugate date suplimentare pentru a personaliza mai bine reclamele și conținutul. Performanța reclamelor și conținutului poate fi măsurată. Pot fi obținute informații despre utilizatorii care au văzut reclamele și conținutul. Aceste date pot fi utilizate pentru a dezvolta sau îmbunătăți experiența utilizatorilor, sistemele și software-ul.

Dând clic pe ‘Sunt de acord’, permiteți utilizarea cookie-urilor menționate, a identificatorilor de dispozitiv, balizelor web sau altor tehnologii similare. Setările pot fi modificate din browser-ul dispozitivului dumneavoastră.

În anumite scopuri, interesele legitime pot prima asupra consimțământului. Puteți citi mai multe informații în acest sens în Politica privind Confidențialitatea Datelor și Cookie.